Tracking 30995 objects as of 5-Jul-2025
HD Live streaming from Space Station
objects crossing your sky now

DELTA 1 DEB

Track DELTA 1 DEB now!
10-day predictions


NORAD ID: 10845
Int'l Code: 1976-077CR
Perigee: 1,502.2 km
Apogee: 1,783.8 km
Inclination: 102.3 °
Period: 119.0 minutes
Semi major axis: 8013 km
RCS: 0.0199 m2 (small)
Launch date: July 29, 1976
Source: United States (US)
Launch site: AIR FORCE WESTERN TEST RANGE (AFWTR)

Note: This is SATELLITE DEBRIS
Your satellite tracking list
Your tracking list is empty




NASA's NSSDC Master Catalog

Two Line Element Set (TLE):
1 10845U 76077CR  25184.25971657 -.00000147  00000-0 -11034-2 0  9992
2 10845 102.3300 295.2808 0175685  94.7621 294.5456 12.10127657161256
Source of the keplerian elements: AFSPC